DW3949 Weather Reports


time (UTC)temp
F
wind
direction
speed
knots
gust
knots
rain 1hr
in
rain 24hr
in
rain mn
in
humidity
%
barometer
mb
20260505022611 63 119 0.0 0.9 0.00 0.00 0.00 61 1010.7
20260505022605 63 217 0.0 2.6 0.00 0.00 0.00 62 1010.8
20260505021557 64 119 0.0 1.7 0.00 0.00 0.00 60 1010.7
20260505021055 64 119 0.0 1.7 0.00 0.00 0.00 60 1010.7
20260505020551 64 119 0.0 1.7 0.00 0.00 0.00 60 1010.5
20260505020051 64 119 0.0 1.7 0.00 0.00 0.00 59 1010.5
20260505015553 64 119 0.0 0.9 0.00 0.00 0.00 58 1010.5
20260505015050 65 119 0.0 0.9 0.00 0.00 0.00 58 1010.4
20260505014550 65 119 0.0 0.9 0.00 0.00 0.00 57 1010.4
20260505014049 65 119 0.0 0.9 0.00 0.00 0.00 57 1010.4
20260505013555 66 119 0.0 0.9 0.00 0.00 0.00 56 1010.3
20260505013550 66 119 0.0 0.9 0.00 0.00 0.00 56 1010.4
20260505012540 66 119 0.0 0.0 0.00 0.00 0.00 55 1010.2
20260505012036 66 119 0.0 0.9 0.00 0.00 0.00 55 1010.0
20260505011536 66 119 0.0 1.7 0.00 0.00 0.00 55 1010.0
20260505011027 67 119 0.0 1.7 0.00 0.00 0.00 55 1010.1
20260505010524 67 119 0.0 1.7 0.00 0.00 0.00 53 1010.0
20260505010520 67 119 0.0 1.7 0.00 0.00 0.00 53 1010.0
20260505005519 68 46 0.0 1.7 0.00 0.00 0.00 53 1010.0
20260505005024 68 154 0.0 1.7 0.00 0.00 0.00 53 1009.9
20260505005020 68 154 0.0 0.9 0.00 0.00 0.00 52 1009.9
20260505004021 68 154 0.0 1.7 0.00 0.00 0.00 52 1009.8
20260505004017 69 154 0.0 1.7 0.00 0.00 0.00 51 1009.8
20260505003033 70 154 0.0 2.6 0.00 0.00 0.00 48 1009.8
20260505003016 69 154 0.9 1.7 0.00 0.00 0.00 50 1009.8
20260505002018 71 154 0.0 2.6 0.00 0.00 0.00 47 1009.7
20260505001523 70 154 0.9 3.5 0.00 0.00 0.00 48 1009.6
20260505001518 71 154 0.9 2.6 0.00 0.00 0.00 46 1009.7
20260505000516 71 187 0.9 3.5 0.00 0.00 0.00 47 1009.7
20260505000008 71 187 0.9 3.5 0.00 0.00 0.00 45 1009.8
20260504235533 71 298 0.9 3.5 0.00 0.00 0.00 45 1009.6
20260504235528 71 152 0.9 2.6 0.00 0.00 0.00 46 1009.5
20260504235523 71 204 0.9 3.5 0.00 0.00 0.00 45 1009.6
20260504235517 72 96 0.9 3.5 0.00 0.00 0.00 44 1009.7
20260504235511 72 193 0.9 3.5 0.00 0.00 0.00 44 1009.7
20260504235505 72 197 0.9 3.5 0.00 0.00 0.00 45 1009.7
20260504232458 72 212 0.9 3.5 0.00 0.00 0.00 45 1009.5
20260504231956 72 190 0.9 3.5 0.00 0.00 0.00 44 1009.5
20260504231453 72 196 0.9 4.3 0.00 0.00 0.00 44 1009.5
20260504230953 72 157 0.9 7.0 0.00 0.00 0.00 45 1009.4
20260504230452 72 34 0.9 7.0 0.00 0.00 0.00 43 1009.4
20260504225950 73 186 0.9 7.0 0.00 0.00 0.00 42 1009.4
20260504225451 73 207 1.7 7.0 0.00 0.00 0.00 42 1009.4
20260504224951 73 186 1.7 4.3 0.00 0.00 0.00 42 1009.4
20260504224441 73 192 1.7 4.3 0.00 0.00 0.00 41 1009.4
20260504223940 74 304 1.7 5.2 0.00 0.00 0.00 41 1009.4
20260504223441 74 148 1.7 5.2 0.00 0.00 0.00 42 1009.4
20260504223436 74 186 1.7 4.3 0.00 0.00 0.00 41 1009.5
20260504223039 74 155 1.7 4.3 0.00 0.00 0.00 40 1009.4
20260504221932 74 200 1.7 4.3 0.00 0.00 0.00 41 1009.4
20260504221432 74 186 1.7 4.3 0.00 0.00 0.00 43 1009.2
20260504220934 74 158 0.9 4.3 0.00 0.00 0.00 42 1009.1
20260504220428 73 221 0.9 3.5 0.00 0.00 0.00 43 1009.2
20260504215924 73 202 1.7 5.2 0.00 0.00 0.00 43 1009.2
20260504215427 74 185 1.7 5.2 0.00 0.00 0.00 42 1009.3
20260504215423 73 191 1.7 5.2 0.00 0.00 0.00 44 1009.3
20260504214419 75 67 1.7 5.2 0.00 0.00 0.00 38 1009.2
20260504213923 74 184 1.7 4.3 0.00 0.00 0.00 40 1009.2
20260504213918 75 86 1.7 4.3 0.00 0.00 0.00 39 1009.3
20260504213531 74 46 1.7 4.3 0.00 0.00 0.00 40 1009.3
20260504212417 74 186 1.7 4.3 0.00 0.00 0.00 40 1009.2
20260504211915 74 241 1.7 6.1 0.00 0.00 0.00 38 1009.3
20260504211911 74 338 1.7 6.1 0.00 0.00 0.00 41 1009.3
20260504211522 74 324 1.7 7.0 0.00 0.00 0.00 41 1009.3
20260504210407 74 175 2.6 8.7 0.00 0.00 0.00 41 1009.4
20260504205907 75 199 2.6 8.7 0.00 0.00 0.00 37 1009.3
20260504205903 75 290 1.7 8.7 0.00 0.00 0.00 37 1009.4
20260504204902 76 169 2.6 8.7 0.00 0.00 0.00 43 1009.4
20260504204407 75 313 1.7 7.8 0.00 0.00 0.00 42 1009.3
20260504204402 75 323 2.6 7.8 0.00 0.00 0.00 41 1009.4
20260504203357 75 190 2.6 7.8 0.00 0.00 0.00 41 1009.4
20260504202859 75 346 2.6 7.8 0.00 0.00 0.00 40 1009.5
20260504202353 74 294 2.6 7.0 0.00 0.00 0.00 39 1009.7
20260504201853 75 254 1.7 4.3 0.00 0.00 0.00 38 1009.7
20260504201353 74 159 1.7 4.3 0.00 0.00 0.00 39 1009.7
20260504200854 74 236 1.7 5.2 0.00 0.00 0.00 39 1009.8
20260504200353 74 186 1.7 5.2 0.00 0.00 0.00 38 1010.0
20260504195855 74 183 2.6 5.2 0.00 0.00 0.00 38 1010.0
20260504195850 74 129 1.7 7.8 0.00 0.00 0.00 39 1010.0
20260504194851 73 158 1.7 7.8 0.00 0.00 0.00 41 1010.1
20260504194350 74 221 2.6 7.8 0.00 0.00 0.00 40 1010.2
20260504193849 74 95 2.6 7.8 0.00 0.00 0.00 38 1010.3
20260504193340 73 53 2.6 6.1 0.00 0.00 0.00 40 1010.3
20260504192839 73 182 2.6 6.1 0.00 0.00 0.00 43 1010.3
20260504192338 73 215 1.7 5.2 0.00 0.00 0.00 41 1010.5
20260504191838 73 114 1.7 3.5 0.00 0.00 0.00 38 1010.6
20260504191335 73 259 1.7 4.3 0.00 0.00 0.00 40 1010.8
20260504190836 73 219 2.6 7.8 0.00 0.00 0.00 41 1010.9
20260504190341 73 288 1.7 7.8 0.00 0.00 0.00 39 1011.1
20260504190336 73 209 2.6 7.8 0.00 0.00 0.00 39 1010.9
20260504185333 73 333 3.5 7.8 0.00 0.00 0.00 42 1011.1
20260504184833 73 292 2.6 7.8 0.00 0.00 0.00 39 1011.3
20260504184331 72 317 2.6 5.2 0.00 0.00 0.00 42 1011.3
20260504183837 71 238 1.7 5.2 0.00 0.00 0.00 44 1011.5
20260504183832 72 168 2.6 5.2 0.00 0.00 0.00 40 1011.4
20260504182830 71 308 1.7 5.2 0.00 0.00 0.00 39 1011.6
20260504182826 71 168 1.7 4.3 0.00 0.00 0.00 41 1011.5
20260504181824 71 183 1.7 5.2 0.00 0.00 0.00 40 1011.7
20260504181329 72 166 1.7 6.1 0.00 0.00 0.00 43 1011.9
20260504181324 71 101 1.7 6.1 0.00 0.00 0.00 41 1011.7
20260504180323 72 21 2.6 7.0 0.00 0.00 0.00 41 1012.0
20260504175828 71 136 1.7 7.0 0.00 0.00 0.00 43 1012.2
20260504175824 71 176 2.6 7.0 0.00 0.00 0.00 43 1012.0
20260504174822 71 221 1.7 7.0 0.00 0.00 0.00 42 1012.2
20260504174322 71 177 1.7 6.1 0.00 0.00 0.00 43 1012.1
20260504174318 70 155 2.6 6.1 0.00 0.00 0.00 41 1012.2
20260504173303 71 97 2.6 7.0 0.00 0.00 0.00 41 1012.2
20260504172804 71 333 1.7 7.0 0.00 0.00 0.00 42 1012.4
20260504172759 70 206 1.7 7.0 0.00 0.00 0.00 43 1012.5
20260504171756 69 165 1.7 4.3 0.00 0.00 0.00 44 1012.5
20260504171259 70 251 2.6 5.2 0.00 0.00 0.00 42 1012.5
20260504170754 69 233 2.6 6.1 0.00 0.00 0.00 43 1012.6
20260504170749 69 190 1.7 5.2 0.00 0.00 0.00 45 1012.6
20260504160227 67 196 2.6 7.8 0.00 0.00 0.00 44 1013.4
20260504150711 65 210 1.7 7.8 0.00 0.00 0.00 45 1014.0
20260504150212 65 79 2.6 7.8 0.00 0.00 0.00 47 1014.1
20260504141204 61 207 1.7 5.2 0.00 0.00 0.00 52 1014.2
20260504140703 60 158 1.7 5.2 0.00 0.00 0.00 52 1014.2
20260504140204 60 165 0.9 3.5 0.00 0.00 0.00 56 1014.2
20260504130637 55 306 0.0 0.9 0.00 0.00 0.00 66 1014.7
20260504130136 54 306 0.0 2.6 0.00 0.00 0.00 68 1014.8
20260504110528 47 299 0.0 1.7 0.00 0.00 0.00 81 1015.1
20260504100519 46 275 0.0 0.0 0.00 0.00 0.00 79 1015.1
20260504081945 47 275 0.0 0.0 0.00 0.00 0.00 74 1015.4
20260504081445 47 275 0.0 0.9 0.00 0.00 0.00 74 1015.5
20260504080946 47 275 0.0 0.9 0.00 0.00 0.00 74 1015.5
20260504080939 47 275 0.0 0.9 0.00 0.00 0.00 76 1015.5
20260504050357 43 275 0.0 0.9 0.00 0.00 0.00 76 1016.0
20260504045848 43 275 0.0 0.9 0.00 0.00 0.00 75 1016.0
20260504045348 43 275 0.0 0.9 0.00 0.00 0.00 76 1016.0
20260504044846 43 275 0.0 0.9 0.00 0.00 0.00 75 1016.0
20260504044347 44 275 0.0 0.9 0.00 0.00 0.00 76 1015.9
20260504043845 44 275 0.0 0.9 0.00 0.00 0.00 76 1015.9
20260504043346 44 275 0.0 0.9 0.00 0.00 0.00 75 1015.8
20260504042839 44 275 0.0 0.0 0.00 0.00 0.00 74 1015.8
20260504042338 44 275 0.0 0.0 0.00 0.00 0.00 76 1015.8
20260504041839 44 275 0.0 0.0 0.00 0.00 0.00 76 1015.9
20260504041343 44 275 0.0 0.0 0.00 0.00 0.00 75 1015.8
20260504041338 44 275 0.0 0.0 0.00 0.00 0.00 75 1015.9
20260504040337 44 275 0.0 0.0 0.00 0.00 0.00 74 1015.8
20260504035832 44 275 0.0 0.0 0.00 0.00 0.00 75 1015.8
20260504035825 44 275 0.0 0.0 0.00 0.00 0.00 74 1015.8
20260504034824 44 275 0.0 0.0 0.00 0.00 0.00 74 1015.9
20260504034813 44 275 0.0 0.0 0.00 0.00 0.00 75 1015.8
20260504034418 44 275 0.0 0.0 0.00 0.00 0.00 75 1015.8
20260504033315 45 275 0.0 0.0 0.00 0.00 0.00 74 1015.7
20260504033311 44 275 0.0 0.0 0.00 0.00 0.00 75 1015.7
20260504032313 45 275 0.0 0.0 0.00 0.00 0.00 73 1015.6
20260504032309 45 275 0.0 0.0 0.00 0.00 0.00 73 1015.6
20260504031309 45 275 0.0 0.0 0.00 0.00 0.00 72 1015.5
20260504030806 45 275 0.0 0.0 0.00 0.00 0.00 71 1015.5
20260504030306 45 275 0.0 0.0 0.00 0.00 0.00 69 1015.5
20260504030300 46 275 0.0 0.0 0.00 0.00 0.00 69 1015.5
20260504025301 46 275 0.0 0.0 0.00 0.00 0.00 69 1015.4
20260504024803 46 275 0.0 0.0 0.00 0.00 0.00 66 1015.3
20260504024758 46 275 0.0 0.0 0.00 0.00 0.00 67 1015.3
20260504023749 46 275 0.0 0.0 0.00 0.00 0.00 65 1015.3
20260504023248 46 275 0.0 0.0 0.00 0.00 0.00 65 1015.3